Regional Weather Roundup
Issued by NWS

Home | Current Version | Previous Version | Text Only | Print | Product List | Glossary Off
Versions: 1 2 3 4 5 6 7 8 9 10 11 12 13 14 15 16 17 18 19 20 21 22 23 24 25 26 27 28 29 30 31 32 33 34 35 36 37 38 39 40 41 42 43 44 45 46 47 48 49 50

000
ASUS43 KMKX 111911
RWRWI

WISCONSIN REGIONAL WEATHER ROUNDUP
NATIONAL WEATHER SERVICE MILWAUKEE/SULLIVAN WI
200 PM CDT FRI JUL 11 2014

NOTE: "FAIR" INDICATES FEW OR NO CLOUDS BELOW 12,000 FEET WITH NO
SIGNIFICANT WEATHER AND/OR OBSTRUCTIONS TO VISIBILITY.

WIZ001-002-006>008-014>016-023>028-112000-
NORTHWEST WISCONSIN

CITY           SKY/WX    TMP DP  RH WIND       PRES   REMARKS
SUPERIOR ARPT  CLOUDY    71  66  85 SW9       29.92S
ASHLAND        CLOUDY    73  65  75 SW18G28   29.94F
HAYWARD        CLOUDY    71  64  78 S16       29.99S
SIREN          CLOUDY    74  65  73 S10       29.96S
RICE LAKE      PTSUNNY   75  63  65 S17       30.01S
LADYSMITH      PTSUNNY   74  63  69 S17G24    30.04F
EAU CLAIRE     MOSUNNY   75  63  66 S17G24    30.01S
MENOMONIE      PTCLDY    75  64  69 S13       30.02S
NEW RICHMOND   CLOUDY    75  63  66 S14       29.99S
OSCEOLA        MOSUNNY   78  66  66 S18       29.99S HX  80
$$

WIZ003>005-009-010-017-018-112000-
NORTH CENTRAL WISCONSIN

CITY           SKY/WX    TMP DP  RH WIND       PRES   REMARKS
WOODRUFF       CLOUDY    74  61  61 S18G24    30.03F
RHINELANDER    PTSUNNY   74  58  57 SW16G30   30.06F
EAGLE RIVER    MOSUNNY   73  55  53 SW14G25   30.04F
LAND O LAKES   PTSUNNY   76  57  51 S15G24    30.03F
PHILLIPS       CLOUDY    72  61  68 SW16G28   30.03F
TOMAHAWK       MOSUNNY   74  59  59 S5G20     30.06F
MEDFORD        CLOUDY    71  59  66 S18       30.06F
MERRILL        PTSUNNY   74  59  58 SW17G23   30.07F
$$

WIZ029-030-035-036-043>047-112000-
CENTRAL WISCONSIN

CITY           SKY/WX    TMP DP  RH WIND       PRES   REMARKS
WAUSAU         PTSUNNY   76  56  49 SW17G29   30.06F
MOSINEE        MOSUNNY   73  57  56 S18G24    30.09F
MARSHFIELD     PTSUNNY   73  60  63 S14       30.06F
STEVENS POINT  MOSUNNY   74  53  48 S17G26    30.09F
WAUPACA        MOSUNNY   80  54  40 S12G21    30.11F HX  80
WAUTOMA        PTSUNNY   75  55  49 S14G20    30.12F
WISC RAPIDS    CLOUDY    75  54  47 S14G26    30.08F
CAMP DOUGLAS   CLOUDY    68  61  77 SE9       30.05F
$$

WIZ011>013-019>022-031-037>040-048>050-112000-
NORTHEAST WISCONSIN

CITY           SKY/WX    TMP DP  RH WIND       PRES   REMARKS
ANTIGO         MOSUNNY   72  59  63 SW15G28   30.09F
STURGEON BAY   CLOUDY    73  61  64 S9        30.12F
GREEN BAY      CLOUDY    78  57  48 SW15G21   30.11F
MANITOWOC      PTSUNNY   73  59  61 S15       30.14F
APPLETON       PTSUNNY   77  55  47 SW20G25   30.13F
CLINTONVILLE   CLOUDY    79  59  50 SW16      30.10F HX  80
OSHKOSH        CLOUDY    78  57  48 SW16G25   30.12F
$$

WIZ032>034-041-042-053>061-112000-
SOUTHWEST WISCONSIN

CITY           SKY/WX    TMP DP  RH WIND       PRES   REMARKS
LA CROSSE      CLOUDY    71  61  70 S12       30.02F
SPARTA         CLOUDY    70  57  62 S13G25    30.02F
VIROQUA        MOCLDY    69  60  73 S14       30.07S
BOSCOBEL       CLOUDY    73  59  61 VRB3      30.07F
PRAIRIE DU CHI CLOUDY    72  58  61 NE7       30.06S
PLATTEVILLE    FAIR      72  62  70 SE14      30.09F
$$

WIZ056-057-062-063-064-067-068-112000-
SOUTH CENTRAL WISCONSIN

CITY           SKY/WX    TMP DP  RH WIND       PRES   REMARKS
BARABOO/DELLS  CLOUDY    69  58  68 S13       30.10F
LONE ROCK      CLOUDY    73  62  68 SE9       30.07F
WATERTOWN      CLOUDY    73  58  59 SW10      30.15F
MADISON        LGT RAIN  73  59  61 S10       30.13F
MIDDLETON      MOCLDY    73  55  54 S13       30.13F
MONROE         CLOUDY    72  55  56 SE12      30.14F
JANESVILLE     CLOUDY    75  55  50 S12       30.15F
$$

WIZ051-052-058>065-066-070>072-112000-
SOUTHEAST WISCONSIN

CITY           SKY/WX    TMP DP  RH WIND       PRES   REMARKS
MILWAUKEE      CLOUDY    77  56  48 SE16      30.16F
WAUKESHA       PTSUNNY   73  54  49 S12       30.18F
MILWAUKEE/TIMM NOT AVBL
RACINE         MOSUNNY   77  55  46 SE14      30.18F
BURLINGTON     MOSUNNY   74  58  57 S7        30.17F
KENOSHA        PTSUNNY   78  58  49 S10       30.17F
FOND DU LAC    CLOUDY    75  57  53 SW12G24   30.13F
SHEBOYGAN      CLOUDY    76  58  53 S12G18    30.14F
WEST BEND      CLOUDY    75  52  43 S9G16     30.15F
JUNEAU         CLOUDY    74  41  30 S10       30.16S
$$

LSZ147-162-112000-
LAKE SUPERIOR

STATION/POSITION TIME  TEMP    WIND        PRES    WAVE
                       AIR SEA DIR/SP/G            HT/PER
                 (UTC) (F)     (DEG/KT/KT) (MB)    (FT/S)
W MID LAKE BUOY  1850   47 38  170/ 10/ 12 1013.7F   1/ 4
PORT WING        1800   73     200/ 14/ 20 1013.2F
SAXON HARBOR     1840          200/ 11/ 18 1014.2S
$$

LMZ867-665-643>646-112000-
LAKE MICHIGAN

STATION/POSITION TIME  TEMP    WIND        PRES    WAVE
                       AIR SEA DIR/SP/G            HT/PER
                 (UTC) (F)     (DEG/KT/KT) (MB)    (FT/S)
N MID LAKE BUOY  1850   58 53  200/ 16/ 19 1019.6F   3/ 4
NORTHPORT PIER   1800   67     150/  7/ 13 1020.0R
KEWAUNEE LAKESHO 1800   54     180/ 11/ 13 1021.3F
SHEBOYGAN LAKESH 1900   65     180/ 18/ 18 1020.7F
PORT WASHINGTON  1800   67     200/  7/ 11 1022.0F
MILWAUKEE LAKESH 1800   63     140/ 16/ 17   N/A
S MID LAKE BUOY  1850   63 60  170/  4/  4 1022.4F   1
KENOSHA   LAKESH 1900   67     160/  8/ 10   N/A
$$

TC  - TEMPERATURE IN CELSIUS
VSB - VISIBILITY IN STATUTE MILES
WCI - WIND CHILL INDEX
HX  - HEAT INDEX




USA.gov is the U.S. government's official web portal to all federal, state and local government web resources and services.